Location: Belvedere Heights
(33.9836°N, 117.3109°W)
Time: 05:18:48
(UTC+00:00)

POLYITAN 1 - Pass Details

Date: 04 June 2024
Orbit: 548 x 570 km, 98.1° (Epoch: 13 June)

Event Time Altitude Azimuth Distance (km) Brightness Sun altitude
Rises 10:55:45 0° 18° (NNE) 2,730 ? -17.9°
Reaches altitude 10° 10:57:56 10° 23° (NNE) 1,830 ? -17.6°
Maximum altitude 11:01:48 53° 100° (E) 681 ? -17.1°
Enters shadow 11:04:33 18° 173° (S) 1,384 ? -16.6°
